Wind_Speed
16 16 16 15 16 18 18 18 20 21 22 21 21 19 20 20 21 19 20 21 21 20 20 20 18 16 15 13 27 6 6 6 9 10 13 13 14 19 10 9 19 9 11 23 28 20 5
15 16 16 15 15 16 19 20 20 22 24 24 25 24 22 22 21 20 19 19 19 20 20 20 19 16 14 21 30 32 13 15 16 11 15 12 13 21 26 17 9 18 19 17 19 13 13
17 18 17 17 18 18 19 21 23 24 25 24 22 24 24 22 22 20 20 19 18 18 20 20 19 18 21 39 13 19 26 26 21 17 18 20 14 16 16 8 17 22 8 9 6 7 5
17 17 19 18 16 18 19 21 22 25 23 19 19 21 23 23 21 21 19 20 17 18 19 19 19 21 22 19 30 26 19 18 14 21 13 15 12 15 7 13 16 7 6 7 3 7 14
18 17 17 20 20 19 21 22 23 22 19 21 20 21 21 21 19 21 19 17 17 17 18 19 20 18 14 11 34 35 28 23 11 16 15 16 15 12 10 3 6 4 6 7 7 15 10
16 17 18 19 20 21 20 20 23 19 21 22 21 22 20 19 18 19 18 15 14 16 15 17 21 10 22 19 28 23 32 25 19 14 18 23 13 4 3 4 11 6 4 10 10 11 15
18 19 19 21 21 20 22 20 22 21 23 22 22 21 18 19 19 15 17 11 9 6 20 16 7 17 18 16 12 26 26 22 22 22 13 19 7 15 15 11 12 7 11 12 7 20 8
19 19 20 21 20 19 20 19 20 21 23 23 23 21 19 19 18 15 20 25 24 9 9 25 38 24 42 31 14 15 24 23 19 19 14 10 22 17 12 13 15 18 16 19 12 13 6
19 20 19 20 20 18 21 19 19 21 22 23 23 21 20 21 15 19 29 36 25 12 6 12 26 33 27 20 18 26 21 37 20 18 20 21 10 17 17 16 19 17 19 13 12 19 9
19 21 19 20 20 21 22 23 23 23 24 24 24 22 20 19 17 22 30 29 22 10 5 6 12 14 27 28 12 26 30 28 16 24 22 18 21 17 23 22 17 17 12 12 14 8 9
21 20 19 20 20 22 24 24 21 23 24 25 22 19 19 17 12 15 17 18 16 11 1 8 21 12 21 29 11 25 30 26 22 23 21 19 22 22 22 26 20 19 9 11 11 7 4
19 19 20 20 20 24 22 22 21 20 24 24 23 22 20 23 23 26 7 8 20 6 9 6 11 16 14 31 33 13 28 32 20 17 16 23 24 18 27 22 16 18 13 18 11 3 6
19 20 20 20 21 26 22 21 20 23 24 25 23 23 23 22 24 18 19 17 9 11 8 9 6 17 22 18 21 24 19 22 16 13 20 23 27 20 25 18 18 16 5 8 6 6 15
19 20 19 21 25 21 21 22 24 22 23 24 24 24 28 26 25 19 27 7 10 13 17 8 10 13 20 15 17 25 25 17 20 16 13 19 16 27 19 30 21 20 14 7 11 12 15
18 20 21 25 19 20 22 22 24 22 23 24 26 28 26 18 21 27 18 13 6 11 17 14 15 12 20 19 17 21 25 25 20 21 15 16 19 8 24 24 25 26 16 21 12 10 0
18 20 22 25 19 20 20 19 22 22 23 21 29 27 26 13 18 31 10 18 6 14 14 23 17 8 10 16 15 10 19 23 26 22 24 10 9 23 22 30 21 24 16 15 11 17 20
17 20 22 24 21 19 19 19 19 21 23 20 21 11 8 12 21 24 12 15 13 24 22 15 24 16 14 19 18 17 13 13 18 28 23 25 16 7 7 25 30 22 19 10 5 10 14
18 19 22 23 21 20 17 17 19 20 20 17 11 3 7 19 6 4 14 23 4 24 22 16 4 20 22 20 18 12 17 14 21 20 32 26 11 23 26 18 13 28 26 22 12 10 18
22 21 23 20 21 18 17 16 17 21 12 17 8 9 7 15 7 7 7 14 13 13 22 15 10 8 10 14 14 17 19 17 16 8 1 16 16 18 15 18 24 15 19 23 23 10 18
20 19 21 21 19 17 15 16 17 17 8 12 5 3 6 8 8 8 7 18 12 13 20 23 19 17 17 15 7 7 13 9 5 13 12 4 9 10 21 25 19 11 24 19 28 21 21
18 18 21 22 18 16 16 15 16 15 6 8 3 3 5 3 1 4 5 6 15 13 19 9 12 18 17 11 18 13 7 4 7 5 4 6 6 12 18 23 24 28 23 22 23 28 26
20 16 21 19 20 19 19 18 15 13 5 8 4 3 5 13 15 5 5 9 16 15 11 16 20 20 17 19 14 18 13 9 8 1 5 3 5 7 10 20 23 22 31 30 25 25 30
19 18 17 18 18 19 21 17 13 8 5 6 8 12 9 8 7 6 7 8 13 16 23 29 19 15 20 21 22 26 20 21 15 6 5 2 2 2 13 11 22 18 30 32 33 22 22
20 18 17 17 19 21 17 13 11 7 8 13 14 17 9 11 9 12 14 17 19 20 24 26 24 17 39 31 33 31 27 17 9 9 8 7 5 4 8 10 18 10 22 29 32 31 19
20 16 16 16 19 17 15 12 12 11 10 15 16 16 11 11 11 17 21 22 25 29 22 24 39 45 36 23 13 15 15 11 15 19 15 12 11 8 8 13 17 18 15 27 30 35 32
20 16 13 15 16 16 15 14 14 12 13 18 22 22 26 6 11 25 19 24 18 15 15 22 35 35 32 12 5 11 8 9 6 6 19 16 14 11 11 13 16 9 15 25 24 26 25
22 17 14 12 16 17 17 15 16 16 15 16 24 19 21 9 15 21 10 11 14 16 7 3 5 17 27 6 6 5 6 5 6 12 14 13 13 20 18 15 11 21 26 36 26 12 26
21 19 17 16 16 18 18 18 17 18 18 17 24 16 21 9 28 21 24 21 14 8 8 3 6 13 4 9 6 4 4 5 10 16 14 12 7 11 12 13 20 17 24 21 27 33 32
23 22 19 18 19 21 19 20 19 19 18 18 23 18 22 26 28 32 28 19 17 20 10 5 5 3 4 3 5 3 4 4 9 10 12 16 17 12 12 9 10 29 24 37 42 22 32
Wind_Direction
344 342 336 320 321 324 327 320 308 305 303 300 300 297 296 295 285 280 272 268 264 266 261 268 263 263 252 238 227 196 349 336 312 257 239 238 256 269 252 269 267 268 266 260 267 272 191
325 328 333 331 315 316 320 320 320 320 314 302 294 296 288 286 285 280 273 269 264 263 260 259 262 259 250 253 242 233 257 270 290 265 263 242 256 261 269 266 259 277 285 283 254 291 290
324 326 327 322 328 318 313 312 313 317 318 314 303 295 292 281 277 278 273 267 263 259 258 253 251 255 251 241 233 209 239 252 258 258 287 241 266 295 271 314 278 278 284 299 279 289 283
327 320 312 317 315 313 321 316 315 314 317 309 302 302 302 290 269 271 273 266 261 255 255 253 245 243 253 258 248 233 217 233 227 239 260 259 284 306 282 297 317 313 301 262 231 272 267
316 322 322 312 314 309 311 316 319 322 308 304 298 299 302 296 278 260 270 270 259 253 254 256 253 237 263 269 245 228 228 236 226 231 250 271 273 276 289 285 321 278 247 278 287 243 246
326 320 322 319 313 313 315 313 316 314 302 302 305 300 295 295 288 256 262 267 256 253 255 261 250 264 245 245 229 236 231 228 244 245 259 235 253 213 218 193 218 221 238 250 245 256 232
326 321 319 320 319 310 309 312 316 311 302 308 308 304 292 289 286 260 242 247 243 238 229 206 226 223 253 318 239 225 218 213 227 243 241 230 206 220 221 221 244 247 245 249 253 248 247
325 322 320 321 319 309 317 308 309 313 306 305 305 303 289 286 272 260 228 220 209 30 278 252 240 243 234 243 303 247 217 206 206 222 227 234 221 215 230 232 235 243 256 264 286 279 250
321 321 321 319 320 312 308 317 315 316 314 309 304 299 289 281 270 238 229 229 230 279 273 268 245 235 230 240 245 259 226 201 205 214 214 216 223 209 223 234 239 238 234 249 252 286 284
318 318 317 318 318 319 316 303 304 311 312 308 304 299 285 283 272 244 239 232 233 229 266 264 209 237 219 232 261 235 240 218 216 211 212 234 227 230 212 232 236 243 242 242 252 262 265
320 322 320 320 320 317 315 318 307 308 308 308 303 297 292 276 259 250 252 242 210 227 244 227 228 204 203 203 202 239 232 244 220 220 203 221 209 211 234 224 223 248 246 242 246 242 253
321 322 322 320 320 325 316 310 314 312 308 307 299 296 299 278 269 249 225 218 191 182 212 260 166 180 171 206 211 255 209 229 233 237 243 239 233 210 228 238 235 233 238 259 277 230 248
322 323 322 321 320 321 318 316 312 307 307 305 298 292 288 269 260 252 209 226 200 212 230 229 214 168 188 197 212 215 230 213 203 208 225 234 235 229 234 243 246 236 208 227 247 237 241
319 324 323 320 320 323 318 313 306 310 312 309 301 296 289 260 245 223 217 230 198 184 199 231 209 205 201 193 207 209 222 230 227 225 214 225 225 220 225 224 226 231 219 198 211 224 244
320 323 321 322 323 317 313 315 316 319 315 316 309 310 294 249 223 205 196 221 216 209 204 224 257 216 206 216 220 194 219 228 229 207 220 215 233 217 224 231 213 232 232 228 242 270 191
312 317 321 326 322 319 320 320 320 322 322 322 318 312 288 220 207 199 201 222 231 216 209 218 228 230 228 198 200 226 212 219 226 217 220 247 263 219 240 217 236 219 224 216 218 225 237
312 316 319 324 322 319 321 324 324 329 327 331 329 308 301 194 187 193 205 225 231 244 246 200 223 243 248 246 217 200 185 241 236 221 217 230 246 257 278 224 216 221 228 219 208 213 222
321 315 316 319 324 323 321 322 326 328 326 342 325 292 298 180 183 216 210 212 253 229 238 249 278 227 245 264 260 237 235 205 201 230 225 216 220 243 246 261 255 220 223 220 212 224 215
303 306 313 319 320 321 320 322 326 322 330 335 304 277 255 209 196 213 217 223 253 258 238 257 252 237 258 248 258 251 249 238 226 144 329 241 224 237 253 248 260 241 244 215 214 213 223
325 325 320 318 320 318 321 321 325 323 329 329 306 302 295 297 280 214 210 235 250 253 253 253 252 253 264 273 274 291 281 258 346 259 203 247 252 239 239 229 240 235 228 240 208 219 234
317 319 320 321 326 327 322 319 318 316 319 323 259 248 296 303 234 224 249 241 239 242 232 252 256 253 255 257 254 263 273 288 284 259 186 170 252 268 257 275 235 245 251 244 231 212 220
320 314 321 330 327 325 320 316 309 304 286 281 260 265 302 280 286 276 226 226 240 243 235 229 232 243 242 246 250 253 244 251 245 299 297 114 253 222 288 261 272 255 241 249 249 225 218
324 318 328 327 329 323 313 313 309 293 267 259 261 278 267 278 278 266 250 235 252 258 251 247 241 246 241 247 247 248 271 250 242 186 160 138 228 246 274 279 255 258 245 245 242 240 226
320 324 326 331 328 321 323 318 315 297 269 273 270 281 263 272 248 254 260 259 251 242 249 255 242 236 247 258 261 253 266 271 268 250 185 184 238 261 274 265 255 273 238 251 248 245 251
318 319 321 333 324 325 327 325 316 299 284 283 285 280 274 264 252 257 255 256 257 256 243 245 246 241 251 257 260 249 246 227 253 241 240 212 223 240 255 267 288 293 276 237 240 240 240
315 311 312 330 325 324 319 314 312 312 299 291 286 293 268 270 250 257 260 257 251 250 253 251 253 251 240 235 229 203 212 222 215 218 226 228 224 221 237 248 255 246 276 267 254 237 240
315 306 300 307 312 315 317 315 309 308 310 307 295 291 298 283 279 249 253 282 255 242 246 237 237 250 240 213 228 202 225 141 212 227 232 212 215 224 234 241 254 251 251 271 276 238 233
318 308 299 290 294 298 305 308 310 307 305 308 303 305 268 280 290 269 280 262 254 225 235 355 217 234 224 211 213 188 195 196 231 235 240 243 212 221 232 233 235 224 249 228 251 247 243
317 315 301 297 292 290 295 300 304 308 306 303 298 315 285 282 280 289 279 278 251 252 198 197 292 302 264 181 207 128 204 178 203 242 221 239 234 241 228 231 217 249 237 249 250 245 234
Height
1517 1516 1515 1514 1513 1511 1510 1509 1508 1507 1506 1505 1504 1504 1503 1502 1500 1499 1499 1500 1502 1503 1505 1507 1508 1508 1508 1506 1496 1500 1500 1505 1506 1506 1506 1507 1509 1509 1507 1502 1499 1497 1493 1490 1488 1489 1491
1517 1515 1514 1512 1511 1509 1507 1506 1505 1503 1502 1500 1500 1500 1499 1498 1497 1496 1496 1496 1497 1499 1500 1503 1504 1505 1504 1498 1492 1497 1500 1504 1504 1505 1504 1505 1506 1505 1503 1500 1499 1492 1490 1487 1484 1484 1486
1515 1514 1512 1511 1508 1506 1505 1504 1502 1500 1498 1496 1495 1495 1494 1493 1493 1492 1492 1492 1493 1495 1497 1498 1500 1501 1496 1479 1489 1490 1495 1497 1500 1502 1501 1502 1503 1503 1499 1497 1493 1490 1491 1485 1482 1481 1485
1513 1511 1510 1508 1507 1505 1503 1501 1499 1497 1494 1493 1493 1491 1490 1488 1488 1488 1488 1489 1490 1492 1493 1495 1496 1497 1483 1482 1489 1485 1490 1492 1492 1497 1498 1497 1498 1497 1496 1496 1491 1494 1488 1497 1483 1482 1482
1510 1508 1507 1505 1504 1502 1500 1498 1495 1493 1492 1491 1489 1487 1485 1484 1483 1484 1485 1485 1486 1488 1489 1491 1493 1493 1480 1480 1477 1482 1486 1488 1489 1493 1495 1496 1497 1495 1495 1500 1507 1496 1506 1495 1490 1480 1483
1507 1505 1504 1502 1500 1498 1496 1495 1492 1490 1488 1487 1485 1483 1481 1480 1479 1479 1481 1482 1483 1485 1488 1488 1488 1490 1477 1469 1471 1473 1480 1485 1486 1490 1491 1494 1495 1495 1495 1504 1509 1507 1501 1498 1494 1479 1476
1504 1502 1500 1498 1496 1494 1492 1490 1488 1486 1484 1482 1480 1478 1476 1476 1475 1475 1479 1481 1484 1484 1481 1475 1474 1472 1463 1463 1469 1470 1474 1480 1484 1487 1487 1487 1496 1493 1491 1491 1491 1489 1491 1492 1481 1468 1474
1501 1499 1497 1495 1492 1490 1488 1486 1484 1482 1480 1477 1475 1473 1472 1471 1470 1471 1472 1470 1467 1479 1473 1468 1466 1467 1466 1463 1469 1464 1472 1476 1478 1477 1481 1485 1478 1479 1485 1484 1485 1487 1489 1483 1477 1465 1468
1498 1496 1494 1491 1489 1486 1484 1482 1480 1478 1475 1473 1470 1469 1468 1466 1464 1463 1462 1461 1470 1474 1473 1460 1456 1457 1460 1465 1464 1459 1463 1467 1467 1473 1472 1472 1463 1475 1477 1479 1480 1479 1481 1481 1480 1465 1462
1495 1492 1490 1487 1485 1482 1479 1477 1475 1473 1471 1468 1466 1464 1463 1462 1462 1458 1456 1463 1470 1475 1473 1454 1448 1446 1452 1460 1457 1454 1455 1462 1464 1464 1466 1465 1465 1464 1468 1473 1472 1478 1467 1470 1472 1478 1488
1491 1489 1487 1484 1481 1479 1476 1472 1470 1468 1466 1463 1461 1459 1458 1459 1455 1455 1459 1462 1470 1474 1499 1441 1435 1438 1439 1449 1450 1445 1448 1455 1453 1453 1463 1452 1455 1457 1462 1455 1462 1461 1465 1465 1467 1473 1474
1488 1485 1482 1480 1477 1474 1471 1469 1465 1463 1460 1458 1455 1454 1453 1451 1450 1452 1456 1461 1469 1474 1464 1430 1421 1427 1435 1438 1443 1445 1443 1448 1447 1452 1453 1446 1450 1451 1445 1449 1453 1455 1461 1463 1466 1475 1490
1484 1482 1479 1476 1473 1470 1467 1464 1461 1458 1455 1452 1449 1448 1447 1447 1444 1449 1455 1457 1456 1453 1434 1425 1420 1422 1425 1429 1437 1443 1441 1440 1444 1453 1452 1442 1440 1441 1445 1451 1448 1452 1466 1484 1491 1489 1472
1481 1478 1475 1472 1469 1466 1463 1460 1457 1454 1451 1447 1443 1440 1436 1436 1440 1444 1449 1448 1436 1430 1426 1413 1412 1417 1424 1422 1429 1434 1437 1440 1435 1439 1443 1447 1452 1436 1430 1434 1441 1444 1454 1480 1490 1481 1465
1477 1474 1471 1468 1464 1462 1459 1456 1452 1450 1446 1441 1437 1431 1425 1426 1431 1438 1443 1436 1425 1418 1416 1415 1412 1415 1421 1418 1420 1429 1432 1432 1428 1430 1439 1435 1433 1422 1427 1426 1434 1437 1448 1436 1459 1458 1473
1473 1470 1467 1464 1461 1458 1454 1452 1449 1446 1442 1438 1432 1424 1414 1419 1425 1432 1434 1425 1426 1416 1408 1416 1415 1407 1413 1413 1420 1425 1422 1415 1420 1421 1424 1422 1432 1419 1412 1423 1422 1424 1428 1449 1448 1470 1477
1469 1466 1463 1459 1456 1453 1451 1448 1445 1442 1439 1435 1429 1423 1412 1415 1421 1427 1421 1418 1415 1412 1408 1408 1412 1409 1405 1407 1405 1409 1415 1419 1412 1414 1417 1421 1427 1420 1416 1416 1413 1421 1424 1426 1430 1440 1460
1465 1462 1459 1456 1452 1450 1447 1445 1442 1439 1436 1433 1429 1425 1413 1414 1418 1417 1415 1410 1412 1406 1409 1409 1406 1407 1408 1404 1403 1404 1402 1399 1399 1406 1410 1410 1419 1423 1415 1404 1402 1403 1408 1414 1429 1439 1427
1460 1457 1455 1452 1448 1446 1443 1442 1439 1436 1434 1432 1428 1422 1412 1410 1410 1410 1411 1411 1410 1407 1405 1406 1407 1402 1401 1402 1407 1402 1402 1394 1396 1406 1415 1413 1406 1422 1419 1412 1399 1405 1400 1398 1405 1415 1423
1456 1454 1451 1447 1444 1442 1440 1438 1436 1433 1432 1431 1428 1422 1412 1406 1405 1405 1409 1407 1407 1404 1405 1404 1400 1400 1402 1402 1399 1402 1397 1392 1398 1397 1404 1415 1414 1418 1416 1401 1395 1402 1397 1392 1395 1410 1412
1452 1450 1447 1443 1441 1439 1437 1435 1433 1431 1429 1430 1427 1422 1417 1410 1406 1404 1406 1403 1405 1404 1399 1400 1401 1402 1400 1401 1400 1403 1400 1397 1395 1397 1403 1411 1415 1412 1407 1406 1393 1391 1392 1388 1388 1388 1399
1447 1445 1442 1440 1437 1436 1434 1431 1430 1427 1427 1427 1426 1421 1416 1410 1406 1403 1403 1399 1399 1395 1398 1394 1397 1393 1392 1398 1399 1398 1400 1398 1398 1396 1397 1400 1408 1412 1415 1404 1399 1389 1381 1383 1377 1377 1378
1444 1440 1438 1436 1434 1431 1428 1426 1425 1425 1424 1423 1420 1418 1416 1407 1403 1402 1398 1395 1392 1396 1390 1387 1389 1390 1391 1389 1389 1391 1393 1390 1390 1394 1398 1406 1411 1410 1400 1400 1402 1395 1386 1372 1369 1366 1370
1439 1437 1435 1432 1430 1427 1424 1422 1421 1422 1423 1421 1418 1417 1413 1400 1400 1395 1392 1391 1384 1386 1385 1378 1385 1386 1372 1382 1386 1387 1387 1386 1384 1383 1388 1397 1402 1409 1403 1406 1400 1375 1369 1374 1362 1359 1361
1435 1432 1431 1429 1426 1423 1421 1419 1418 1418 1417 1416 1415 1414 1409 1392 1389 1386 1383 1380 1377 1375 1374 1373 1370 1368 1372 1383 1385 1385 1386 1384 1384 1378 1381 1384 1393 1401 1401 1391 1373 1372 1371 1367 1361 1350 1347
1430 1427 1426 1424 1422 1420 1418 1416 1413 1411 1410 1408 1408 1407 1399 1386 1373 1379 1376 1371 1366 1366 1365 1357 1363 1368 1372 1373 1378 1365 1376 1368 1373 1368 1368 1375 1381 1391 1391 1391 1381 1360 1358 1356 1348 1345 1339
1425 1423 1421 1420 1418 1416 1413 1411 1409 1407 1405 1402 1398 1399 1393 1381 1370 1371 1367 1363 1361 1359 1355 1353 1351 1358 1362 1364 1365 1356 1361 1354 1364 1362 1365 1370 1374 1378 1379 1381 1370 1357 1358 1360 1369 1342 1325
1419 1417 1415 1414 1412 1410 1408 1406 1403 1401 1399 1396 1390 1390 1386 1376 1365 1360 1359 1356 1355 1351 1351 1349 1352 1351 1352 1355 1355 1354 1353 1357 1358 1351 1354 1359 1367 1369 1367 1367 1363 1338 1338 1352 1332 1326 1320
1414 1411 1408 1407 1405 1404 1401 1399 1397 1395 1392 1391 1384 1384 1381 1375 1362 1356 1352 1350 1348 1346 1348 1349 1348 1347 1343 1345 1344 1348 1348 1350 1348 1349 1342 1356 1349 1349 1341 1337 1327 1319 1325 1319 1325 1321 1317